Printer-friendly version

IAU Minor Planet Center

Minor Planet Center

MPEC 2001-U13: 2001 TE45

The following Minor Planet Electronic Circular may be linked-to from your own Web pages, but must not otherwise be redistributed electronically.


Read MPEC 2001-U12 Read MPEC 2001-U14


M.P.E.C. 2001-U13                                Issued 2001 Oct. 17, 19:21 UT

     The Minor Planet Electronic Circulars contain information on unusual
         minor planets and routine data on comets.  They are published
   on behalf of Commission 20 of the International Astronomical Union by the
          Minor Planet Center, Smithsonian Astrophysical Observatory,
                          Cambridge, MA 02138, U.S.A.

             Prepared using the Tamkin Foundation Computer Network

                              MPC@CFA.HARVARD.EDU
          URL http://cfa-www.harvard.edu/iau/mpc.html  ISSN 1523-6714

                                   2001 TE45

Observations:
     K01T45E* C2001 10 15.47394 00 43 08.87 +23 45 33.2          21.3        608
     K01T45E  C2001 10 15.48480 00 43 13.15 +23 43 53.9          20.7        608
     K01T45E  C2001 10 15.49595 00 43 17.54 +23 42 12.5          20.4        608
     K01T45E  C2001 10 15.85219 00 45 48.68 +22 48 51.7          18.9 R      046
     K01T45E  C2001 10 15.85321 00 45 49.62 +22 48 38.7                      046
     K01T45E  C2001 10 15.85521 00 45 50.49 +22 48 27.3                      046
     K01T45E  C2001 10 16.20867 00 48 09.65 +21 57 07.4          18.7 R      649
     K01T45E  C2001 10 16.20948 00 48 09.91 +21 57 00.0          19.0 R      649
     K01T45E  C2001 10 16.21029 00 48 10.23 +21 56 53.5          18.8 R      649
     K01T45E  C2001 10 16.21109 00 48 10.51 +21 56 46.9          19.5 R      649
     K01T45E 1C2001 10 17.15213 00 54 02.88 +19 45 15.2                      658
     K01T45E 1C2001 10 17.15322 00 54 03.25 +19 45 06.1                      658
     K01T45E 1C2001 10 17.15433 00 54 03.57 +19 44 57.5                      658
     K01T45E  C2001 10 17.42265 00 55 31.52 +19 09 20.4          21.0        644
     K01T45E  C2001 10 17.43354 00 55 35.07 +19 07 53.3          20.2        644
     K01T45E  C2001 10 17.44428 00 55 38.66 +19 06 25.6          20.5        644

Observer details:
046 Klet.  Observer M. Tichy.  0.57-m f/5.2 reflector + CCD.
608 Haleakala-NEAT/MSSS.  Observers E. F. Helin, S. Pravdo, K. Lawrence,
    P. Kervin, R. Maeda, J. Africano, M. Hicks.  1.2-m reflector + CCD.
644 Palomar Mountain/NEAT.  Observers E. F. Helin, S. Pravdo, K. Lawrence,
    M. Hicks, E. Hovland, T. Bickler, J. Schroeder, L. Scherr, R. Thicksten,
    A. Deetz.  1.2-m Schmidt + CCD.
649 Powell Observatory, Louisburg.  Observers K. Smalley, R. Fredrick.
    0.75-m Newtonian + CCD.
658 National Research Council of Canada.  Observers D. D. Balam, P. G. Brown.
    1.82-m Plaskett reflector + CCD.

Orbital elements:
2001 TE45
Epoch 2001 Sept. 28.0 TT = JDT 2452180.5                Spahr
M  11.94557              (2000.0)            P               Q
n   0.41348600     Peri.  120.18235     +0.84457062     +0.52170318
a   1.7844135      Node   208.88551     -0.53543613     +0.82411820
e   0.4556540      Incl.   14.44808     +0.00293538     +0.22057875
P   2.38           H   23.3           G   0.15
From 13 observations 2001 Oct. 15-17.

Ephemeris:
2001 TE45                a,e,i = 1.78, 0.46, 14                  q = 0.9713
Date    TT    R. A. (2000) Decl.     Delta      r     Elong.  Phase     V
2001 10 18    00 58.80   +17 54.8    0.127    1.121   168.5    10.2    19.7
2001 10 19    01 03.98   +15 51.9    0.132    1.126   170.4     8.5    19.7
2001 10 20    01 08.69   +13 57.7    0.137    1.132   171.8     7.3    19.8
2001 10 21    01 12.99   +12 11.9    0.143    1.137   172.6     6.5    19.8
2001 10 22    01 16.93   +10 34.0    0.149    1.143   172.7     6.3    19.9
2001 10 23    01 20.55   +09 03.6    0.155    1.149   172.3     6.6    20.1
2001 10 24    01 23.89   +07 40.1    0.161    1.154   171.5     7.3    20.2
2001 10 25    01 26.97   +06 23.1    0.168    1.160   170.5     8.1    20.3
2001 10 26    01 29.83   +05 12.0    0.174    1.166   169.3     9.1    20.4
2001 10 27    01 32.48   +04 06.5    0.181    1.172   168.1    10.0    20.6
2001 10 28    01 34.96   +03 06.2    0.188    1.178   166.9    11.0    20.7
2001 10 29    01 37.27   +02 10.5    0.195    1.184   165.7    12.0    20.8
2001 10 30    01 39.43   +01 19.3    0.203    1.190   164.5    12.9    21.0
2001 10 31    01 41.47   +00 32.0    0.210    1.196   163.3    13.8    21.1
2001 11 01    01 43.38   -00 11.4    0.218    1.202   162.2    14.6    21.2
2001 11 02    01 45.19   -00 51.5    0.225    1.208   161.1    15.5    21.3
2001 11 03    01 46.90   -01 28.3    0.233    1.214   160.0    16.2    21.4
2001 11 04    01 48.52   -02 02.2    0.241    1.220   158.9    17.0    21.5
2001 11 05    01 50.07   -02 33.3    0.249    1.226   157.9    17.7    21.7
2001 11 06    01 51.54   -03 01.8    0.258    1.232   156.9    18.4    21.8

Timothy B. Spahr             (C) Copyright 2001 MPC           M.P.E.C. 2001-U13

Read MPEC 2001-U12 Read MPEC 2001-U14


Our Web policy. Index to the CBAT/MPC/ICQ pages.


Valid HTML 4.01!